{"data":{"norad_id":69122,"intl_designator":"2026-108U","name":"CZ-8 R/B","alt_names":[],"object_type":"ROCKET_BODY","status":"UNKNOWN","operator":null,"country":"PRC","launch_date":"2026-05-17","launch_site_code":"WSC","launch_vehicle":null,"mission":null,"orbit_class":"UNKNOWN","rcs_meters":null,"size_class":null,"mass_kg":null,"dimensions":null,"purposes":[],"wikipedia_slug":null,"has_3d_model":false,"image_url":null,"decayed_at":null,"tle_current":{"epoch":"2026-06-16T03:15:38.339424Z","epoch_age_seconds":8349060,"freshness":"OLD","line1":"1 69122U 26108U   26167.13586041  .00000189  00000+0  54419-4 0  9991","line2":"2 69122  89.0107  22.2220 0067856  23.8601 336.5719 14.39194418  4258","mean_motion":14.39194418,"eccentricity":0.0067856,"inclination_deg":89.0107,"raan_deg":22.222,"arg_perigee_deg":23.8601,"mean_anomaly_deg":336.5719,"bstar":5.4419e-5,"rev_number":425,"period_min":100.05597450837,"perigee_km":712.71691558416,"apogee_km":809.60576119411,"semimajor_km":7139.2983383891,"source":"CELESTRAK","updated_at":"2026-06-16T09:00:31.227687Z"}}}